Location: Alpha Ridge Park
(39.3209°N, 76.9128°W)
Time: 13:32:05
(UTC-04:00)

Vanguard 2 Rocket - Pass Details

Date: 22 May 2019
Orbit: 555 x 3326 km, 32.9° (Epoch: 25 June)

Event Time Altitude Azimuth Distance (km) Brightness Sun altitude
Rises 06:17:05 0° 227° (SW) 7,288 10.9 4.1°
Reaches altitude 10° 06:22:34 10° 221° (SW) 6,150 10.6 5.1°
Maximum altitude 06:39:27 44° 158° (SSE) 3,206 9.8 8.2°
Drops below altitude 10° 06:50:30 10° 92° (E) 4,138 11.9 10.2°
Sets 06:53:23 0° 85° (E) 4,805 12.4 10.7°
